H1 CPF 2 NER 2025 9 5 9 248 01 glonass142 H2 2001801 9142 45358 2025 9 5 0 0 0 2025 9 8 23 45 0 900 1 1 0 0 0 1 H9 10 0 60923 0.00000 0 13584361.070 5291536.879 20958905.324 10 0 60923 900.00000 0 11138257.206 6313599.071 22086721.857 10 0 60923 1800.00000 0 8673320.020 7563127.691 22786673.966 10 0 60923 2700.00000 0 6255265.746 9019392.340 23045126.600 10 0 60923 3600.00000 0 3945631.060 10650158.696 22856970.113 10 0 60923 4500.00000 0 1799416.839 12412872.967 22225726.103 10 0 60923 5400.00000 0 -136986.744 14256294.005 21163489.550 10 0 60923 6300.00000 0 -1827508.530 16122506.961 19690707.507 10 0 60923 7200.00000 0 -3247667.659 17949236.208 17835797.438 10 0 60923 8100.00000 0 -4385355.240 19672362.536 15634611.225 10 0 60923 9000.00000 0 -5241093.908 21228540.518 13129753.743 10 0 60923 9900.00000 0 -5827764.317 22557807.073 10369767.842 10 0 60923 10800.00000 0 -6169809.953 23606072.006 7408200.409 10 0 60923 11700.00000 0 -6301953.571 24327385.482 4302566.816 10 0 60923 12600.00000 0 -6267479.427 24685886.186 1113233.533 10 0 60923 13500.00000 0 -6116154.105 24657346.947 -2097759.266 10 0 60923 14400.00000 0 -5901874.464 24230251.240 -5267911.689 10 0 60923 15300.00000 0 -5680143.198 23406353.771 -8335490.148 10 0 60923 16200.00000 0 -5505480.165 22200700.164 -11240740.389 10 0 60923 17100.00000 0 -5428880.596 20641103.872 -13927062.680 10 0 60923 18000.00000 0 -5495429.457 18767101.637 -16342124.997 10 0 60923 18900.00000 0 -5742174.521 16628431.051 -18438891.443 10 0 60923 19800.00000 0 -6196349.654 14283094.188 -20176545.084 10 0 60923 20700.00000 0 -6874024.645 11795088.794 -21521286.647 10 0 60923 21600.00000 0 -7779239.625 9231902.451 -22446993.388 10 0 60923 22500.00000 0 -8903661.327 6661874.943 -22935725.389 10 0 60923 23400.00000 0 -10226776.085 4151539.317 -22978069.793 10 0 60923 24300.00000 0 -11716611.692 1763052.631 -22573316.835 10 0 60923 25200.00000 0 -13330957.803 -448176.787 -21729464.885 10 0 60923 26100.00000 0 -15019033.482 -2435567.299 -20463055.092 10 0 60923 27000.00000 0 -16723531.743 -4163061.682 -18798839.500 10 0 60923 27900.00000 0 -18382955.092 -5606375.273 -16769289.712 10 0 60923 28800.00000 0 -19934143.935 -6753744.326 -14413956.204 10 0 60923 29700.00000 0 -21314891.685 -7606145.372 -11778691.238 10 0 60923 30600.00000 0 -22466536.915 -8176978.718 -8914750.912 10 0 60923 31500.00000 0 -23336423.929 -8491231.558 -5877794.213 10 0 60923 32400.00000 0 -23880128.792 -8584158.057 -2726798.881 10 0 60923 33300.00000 0 -24063357.857 -8499533.783 477084.585 10 0 60923 34200.00000 0 -23863439.626 -8287559.584 3671718.288 10 0 60923 35100.00000 0 -23270347.972 -8002504.430 6795178.612 10 0 60923 36000.00000 0 -22287214.378 -7700187.332 9786951.002 10 0 60923 36900.00000 0 -20930308.217 -7435404.918 12589094.994 10 0 60923 37800.00000 0 -19228486.187 -7259413.077 15147357.464 10 0 60923 38700.00000 0 -17222133.939 -7217568.566 17412213.308 10 0 60923 39600.00000 0 -14961643.807 -7347229.498 19339814.328 10 0 60923 40500.00000 0 -12505491.466 -7676002.681 20892829.000 10 0 60923 41400.00000 0 -9917990.581 -8220411.253 22041157.932 10 0 60923 42300.00000 0 -7266817.580 -8985038.644 22762512.082 10 0 60923 43200.00000 0 -4620407.852 -9962185.244 23042843.265 10 0 60923 44100.00000 0 -2045329.863 -11132053.065 22876619.018 10 0 60923 45000.00000 0 396255.408 -12463451.957 22266936.458 10 0 60923 45900.00000 0 2648945.690 -13914999.459 21225472.521 10 0 60923 46800.00000 0 4666162.919 -15436765.906 19772270.694 10 0 60923 47700.00000 0 6411847.973 -16972297.749 17935367.191 10 0 60923 48600.00000 0 7861714.707 -18460936.061 15750262.448 10 0 60923 49500.00000 0 9004011.235 -19840334.429 13259246.659 10 0 60923 50400.00000 0 9839756.661 -21049071.483 10510591.082 10 0 60923 51300.00000 0 10382443.231 -22029248.668 7557619.626 10 0 60923 52200.00000 0 10657216.285 -22728963.839 4457677.888 10 0 60923 53100.00000 0 10699566.471 -23104555.732 1271019.331 10 0 60923 54000.00000 0 10553589.512 -23122523.574 -1940369.698 10 0 60923 54900.00000 0 10269887.464 -22761039.358 -5113982.762 10 0 60923 55800.00000 0 9903200.967 -22010987.377 -8188019.389 10 0 60923 56700.00000 0 9509873.740 -20876485.523 -11102599.418 10 0 60923 57600.00000 0 9145257.973 -19374864.994 -13800940.718 10 0 60923 58500.00000 0 8861171.913 -17536108.069 -16230476.047 10 0 60923 59400.00000 0 8703518.755 -15401766.889 -18343886.235 10 0 60923 60300.00000 0 8710168.951 -13023408.209 -20100028.708 10 0 60923 61200.00000 0 8909196.660 -10460649.298 -21464742.718 10 0 60923 62100.00000 0 9317545.751 -7778867.403 -22411515.401 10 0 60923 63000.00000 0 9940182.285 -5046678.765 -22921995.799 10 0 60923 63900.00000 0 10769769.502 -2333292.747 -22986347.203 10 0 60923 64800.00000 0 11786879.074 294148.506 -22603431.488 10 0 60923 65700.00000 0 12960729.539 2773134.167 -21780822.516 10 0 60923 66600.00000 0 14250420.539 5048146.270 -20534649.022 10 0 60923 67500.00000 0 15606610.562 7072721.170 -18889270.712 10 0 60923 68400.00000 0 16973567.233 8811126.352 -16876794.483 10 0 60923 69300.00000 0 18291503.583 10239584.202 -14536440.733 10 0 60923 70200.00000 0 19499101.810 11346993.643 -11913772.587 10 0 60923 71100.00000 0 20536118.232 12135121.587 -9059803.444 10 0 60923 72000.00000 0 21345959.887 12618258.411 -6030000.631 10 0 60923 72900.00000 0 21878124.523 12822354.156 -2883204.875 10 0 60923 73800.00000 0 22090401.661 12783673.753 319513.151 10 0 60923 74700.00000 0 21950742.520 12547029.636 3516036.762 10 0 60923 75600.00000 0 21438720.684 12163667.548 6644404.613 10 0 60923 76500.00000 0 20546522.552 11688895.595 9644006.333 10 0 60923 77400.00000 0 19279426.388 11179556.996 12456749.486 10 0 60923 78300.00000 0 17655750.039 10691453.163 15028175.819 10 0 60923 79200.00000 0 15706269.456 10276825.424 17308505.934 10 0 60923 80100.00000 0 13473131.935 9982000.955 19253593.067 10 0 60923 81000.00000 0 11008308.706 9845301.367 20825768.530 10 0 60923 81900.00000 0 8371650.242 9895301.332 21994563.562 10 0 60923 82800.00000 0 5628623.834 10149510.026 22737294.491 10 0 60923 83700.00000 0 2847825.807 10613530.678 23039500.661 10 0 60923 84600.00000 0 98369.873 11280733.838 22895227.047 10 0 60923 85500.00000 0 -2552741.745 12132458.803 22307146.092 10 0 60924 0.00000 0 -5043156.796 13138735.874 21286516.123 10 0 60924 900.00000 0 -7317518.456 14259501.166 19852975.715 10 0 60924 1800.00000 0 -9329518.117 15446253.316 18034178.265 10 0 60924 2700.00000 0 -11043575.291 16644085.982 15865270.682 10 0 60924 3600.00000 0 -12436071.668 17794010.934 13388226.046 10 0 60924 4500.00000 0 -13496089.225 18835475.646 10651041.314 10 0 60924 5400.00000 0 -14225621.159 19708969.995 7706814.524 10 0 60924 6300.00000 0 -14639246.579 20358612.278 4612718.509 10 0 60924 7200.00000 0 -14763282.412 20734604.971 1428890.694 10 0 60924 8100.00000 0 -14634448.237 20795455.563 -1782739.412 10 0 60924 9000.00000 0 -14298100.564 20509867.227 -4959661.762 10 0 60924 9900.00000 0 -13806111.672 19858217.797 -8040011.829 10 0 60924 10800.00000 0 -13214483.538 18833562.825 -10963786.204 10 0 60924 11700.00000 0 -12580798.885 17442118.670 -13674022.789 10 0 60924 12600.00000 0 -11961618.506 15703203.780 -16117921.302 10 0 60924 13500.00000 0 -11409936.327 13648639.470 -18247881.170 10 0 60924 14400.00000 0 -10972801.099 11321634.540 -20022435.748 10 0 60924 15300.00000 0 -10689206.380 8775200.111 -21407064.062 10 0 60924 16200.00000 0 -10588338.738 6070160.914 -22374864.076 10 0 60924 17100.00000 0 -10688258.617 3272846.201 -22907074.446 10 0 60924 18000.00000 0 -10995069.687 452556.895 -22993434.948 10 0 60924 18900.00000 0 -11502611.516 -2321085.345 -22632379.111 10 0 60924 19800.00000 0 -12192688.127 -4980796.761 -21831055.958 10 0 60924 20700.00000 0 -13035822.206 -7464187.398 -20605181.111 10 0 60924 21600.00000 0 -13992502.527 -9716108.516 -18978720.868 10 0 60924 22500.00000 0 -15014871.356 -11690694.742 -16983415.991 10 0 60924 23400.00000 0 -16048780.143 -13353017.172 -14658155.052 10 0 60924 24300.00000 0 -17036126.343 -14680280.149 -12048210.012 10 0 60924 25200.00000 0 -17917372.555 -15662513.636 -9204349.344 10 0 60924 26100.00000 0 -18634141.572 -16302734.321 -6181846.336 10 0 60924 27000.00000 0 -19131777.940 -16616570.831 -3039402.206 10 0 60924 27900.00000 0 -19361768.178 -16631370.848 161994.765 10 0 60924 28800.00000 0 -19283917.920 -16384829.533 3360251.716 10 0 60924 29700.00000 0 -18868194.611 -15923198.464 6493372.245 10 0 60924 30600.00000 0 -18096158.566 -15299151.687 9500652.846 10 0 60924 31500.00000 0 -16961922.466 -14569399.429 12323851.774 10 0 60924 32400.00000 0 -15472599.179 -13792150.236 14908308.250 10 0 60924 33300.00000 0 -13648218.988 -13024528.233 17203991.054 10 0 60924 34200.00000 0 -11521119.284 -12320053.683 19166457.119 10 0 60924 35100.00000 0 -9134831.482 -11726292.103 20757702.613 10 0 60924 36000.00000 0 -6542510.412 -11282769.875 21946891.100 10 0 60924 36900.00000 0 -3804970.157 -11019243.200 22710945.632 10 0 60924 37800.00000 0 -988406.275 -10954392.463 23034994.071 10 0 60924 38700.00000 0 1838102.933 -11094996.588 22912659.463 10 0 60924 39600.00000 0 4605214.279 -11435622.217 22346189.849 10 0 60924 40500.00000 0 7245949.924 -11958841.342 21346424.662 10 0 60924 41400.00000 0 9698232.460 -12635969.266 19932597.518 10 0 60924 42300.00000 0 11907220.822 -13428293.164 18131978.090 10 0 60924 43200.00000 0 13827350.808 -14288741.060 15979358.637 10 0 60924 44100.00000 0 15423995.773 -15163922.367 13516393.599 10 0 60924 45000.00000 0 16674678.281 -15996455.243 10790803.702 10 0 60924 45900.00000 0 17569781.937 -16727483.430 7855458.763 10 0 60924 46800.00000 0 18112733.262 -17299276.674 4767356.114 10 0 60924 47700.00000 0 18319645.573 -17657804.606 1586514.093 10 0 60924 48600.00000 0 18218439.627 -17755174.514 -1625197.919 10 0 60924 49500.00000 0 17847478.013 -17551828.625 -4805269.666 10 0 60924 50400.00000 0 17253771.159 -17018406.359 -7891775.977 10 0 60924 51300.00000 0 16490831.304 -16137190.971 -10824593.504 10 0 60924 52200.00000 0 15616265.972 -14903077.610 -13546583.319 10 0 60924 53100.00000 0 14689213.797 -13324020.168 -16004714.996 10 0 60924 54000.00000 0 13767732.271 -11420936.613 -18151109.171 10 0 60924 54900.00000 0 12906249.008 -9227075.552 -19943977.406 10 0 60924 55800.00000 0 12153185.201 -6786869.859 -21348440.411 10 0 60924 56700.00000 0 11548852.385 -4154324.915 -22337208.476 10 0 60924 57600.00000 0 11123711.641 -1391008.661 -22891110.935 10 0 60924 58500.00000 0 10897068.716 1436272.543 -22999464.675 10 0 60924 59400.00000 0 10876259.732 4258015.309 -22660275.058 10 0 60924 60300.00000 0 11056361.160 7004671.974 -21880266.016 10 0 60924 61200.00000 0 11420435.416 9609304.378 -20674739.409 10 0 60924 62100.00000 0 11940300.719 12010128.615 -19067267.082 10 0 60924 63000.00000 0 12577791.723 14152845.505 -17089222.240 10 0 60924 63900.00000 0 13286456.768 15992660.682 -14779159.835 10 0 60924 64800.00000 0 14013619.292 17495911.444 -12182058.520 10 0 60924 65700.00000 0 14702715.746 18641234.043 -9348439.338 10 0 60924 66600.00000 0 15295810.800 19420224.474 -6333378.721 10 0 60924 67500.00000 0 15736183.421 19837567.044 -3195435.318 10 0 60924 68400.00000 0 15970874.545 19910627.319 4488.232 10 0 60924 69300.00000 0 15953088.913 19668528.382 3204326.203 10 0 60924 70200.00000 0 15644349.958 19150750.840 6342050.412 10 0 60924 71100.00000 0 15016317.180 18405316.745 9356867.356 10 0 60924 72000.00000 0 14052189.698 17486634.673 12190388.913 10 0 60924 72900.00000 0 12747637.081 16453097.058 14787754.436 10 0 60924 73800.00000 0 11111218.282 15364530.778 17098683.252 10 0 60924 74700.00000 0 9164270.714 14279607.733 19078438.068 10 0 60924 75600.00000 0 6940273.400 13253323.462 20688681.665 10 0 60924 76500.00000 0 4483709.650 12334648.669 21898211.388 10 0 60924 77400.00000 0 1848475.243 11564451.221 22683558.144 10 0 60924 78300.00000 0 -904103.420 10973774.802 23029439.091 10 0 60924 79200.00000 0 -3707560.813 10582545.705 22929055.720 10 0 60924 80100.00000 0 -6492800.281 10398761.622 22384231.625 10 0 60924 81000.00000 0 -9190716.459 10418196.444 21405386.925 10 0 60924 81900.00000 0 -11734825.072 10624633.931 20011349.072 10 0 60924 82800.00000 0 -14063792.322 10990621.192 18229002.570 10 0 60924 83700.00000 0 -16123759.822 11478711.375 16092783.040 10 0 60924 84600.00000 0 -17870368.897 12043144.386 13644023.900 10 0 60924 85500.00000 0 -19270400.033 12631895.900 10930166.943 10 0 60925 0.00000 0 -20302958.703 13189008.982 8003851.112 10 0 60925 900.00000 0 -20960158.011 13657110.578 4921894.675 10 0 60925 1800.00000 0 -21247267.646 13980005.665 1744194.045 10 0 60925 2700.00000 0 -21182324.203 14105239.721 -1467444.586 10 0 60925 3600.00000 0 -20795217.464 13986519.203 -4650513.758 10 0 60925 4500.00000 0 -20126291.669 13585886.335 -7743030.549 10 0 60925 5400.00000 0 -19224520.956 12875554.347 -10684754.434 10 0 60925 6300.00000 0 -18145336.532 11839323.587 -13418372.223 10 0 60925 7200.00000 0 -16948198.233 10473516.793 -15890625.669 10 0 60925 8100.00000 0 -15694014.016 8787392.318 -18053358.639 10 0 60925 9000.00000 0 -14442517.388 6803016.427 -19864462.582 10 0 60925 9900.00000 0 -13249714.429 4554598.907 -21288701.198 10 0 60925 10800.00000 0 -12165508.778 2087319.090 -22298398.030 10 0 60925 11700.00000 0 -11231605.105 -544309.057 -22873973.635 10 0 60925 12600.00000 0 -10479779.395 -3278464.588 -23004322.182 10 0 60925 13500.00000 0 -9930588.468 -6048355.424 -22687020.682 10 0 60925 14400.00000 0 -9592572.307 -8784765.021 -21928367.444 10 0 60925 15300.00000 0 -9461981.668 -11418703.782 -20743249.687 10 0 60925 16200.00000 0 -9523041.159 -13884055.025 -19154843.618 10 0 60925 17100.00000 0 -9748735.283 -16120105.765 -17194153.403 10 0 60925 18000.00000 0 -10102082.934 -18073857.531 -14899398.649 10 0 60925 18900.00000 0 -10537845.287 -19702021.898 -12315262.769 10 0 60925 19800.00000 0 -11004593.888 -20972618.709 -9492017.310 10 0 60925 20700.00000 0 -11447050.750 -21866111.731 -6484539.684 10 0 60925 21600.00000 0 -11808600.954 -22376035.886 -3351243.736 10 0 60925 22500.00000 0 -12033871.258 -22509091.586 -152944.215 10 0 60925 23400.00000 0 -12071265.589 -22284703.921 3048322.592 10 0 60925 24300.00000 0 -11875350.433 -21734066.803 6190499.046 10 0 60925 25200.00000 0 -11408989.563 -20898713.531 9212704.009 10 0 60925 26100.00000 0 -10645138.333 -19828674.843 12056405.359 10 0 60925 27000.00000 0 -9568222.081 -18580302.374 14666544.938 10 0 60925 27900.00000 0 -8175040.684 -17213849.056 16992594.919 10 0 60925 28800.00000 0 -6475160.976 -15790907.724 18989525.951 10 0 60925 29700.00000 0 -4490780.009 -14371814.670 20618669.436 10 0 60925 30600.00000 0 -2256063.816 -13013125.992 21848458.286 10 0 60925 31500.00000 0 184012.055 -11765271.311 22655032.786 10 0 60925 32400.00000 0 2775273.692 -10670481.924 23022700.638 10 0 60925 33300.00000 0 5456346.586 -9761079.046 22944242.750 10 0 60925 34200.00000 0 8160959.085 -9058192.990 22421058.934 10 0 60925 35100.00000 0 10820457.982 -8570966.426 21463150.368 10 0 60925 36000.00000 0 13366433.680 -8296275.017 20088938.402 10 0 60925 36900.00000 0 15733347.530 -8218977.408 18324922.109 10 0 60925 37800.00000 0 17861053.302 -8312684.679 16205179.840 10 0 60925 38700.00000 0 19697108.603 -8541017.677 13770722.961 10 0 60925 39600.00000 0 21198780.107 -8859300.109 11068712.851 10 0 60925 40500.00000 0 22334658.684 -9216616.705 8151555.098 10 0 60925 41400.00000 0 23085816.338 -9558149.987 5075887.541 10 0 60925 42300.00000 0 23446455.694 -9827696.846 1901481.310 10 0 60925 43200.00000 0 23424024.013 -9970258.033 -1309923.792 10 0 60925 44100.00000 0 23038786.262 -9934589.961 -4495826.546 10 0 60925 45000.00000 0 22322874.735 -9675609.398 -7594189.839 10 0 60925 45900.00000 0 21318855.217 -9156547.484 -10544659.501 10 0 60925 46800.00000 0 20077870.317 -8350760.018 -13289751.483 10 0 60925 47700.00000 0 18657438.886 -7243115.478 -15775982.890 10 0 60925 48600.00000 0 17119005.100 -5830900.284 -17954923.728 10 0 60925 49500.00000 0 15525341.471 -4124201.449 -19784147.908 10 0 60925 50400.00000 0 13937916.114 -2145749.141 -21228064.351 10 0 60925 51300.00000 0 12414335.903 69775.255 -22258611.713 10 0 60925 52200.00000 0 11005973.519 2476937.296 -22855803.236 10 0 60925 53100.00000 0 9755878.309 5021204.073 -23008111.413 10 0 60925 54000.00000 0 8697058.386 7640986.278 -22712685.522 10 0 60925 54900.00000 0 7851205.378 10269982.583 -21975398.423 10 0 60925 55800.00000 0 7227914.261 12839728.516 -20810722.432 10 0 60925 56700.00000 0 6824429.577 15282243.710 -19241437.410 10 0 60925 57600.00000 0 6625927.031 17532667.403 -17298177.352 10 0 60925 58500.00000 0 6606316.877 19531772.708 -15018824.950 10 0 60925 59400.00000 0 6729533.514 21228255.476 -12447766.386 10 0 60925 60300.00000 0 6951255.380 22580703.113 -9635021.308 10 0 60925 61200.00000 0 7220981.209 23559162.221 -6635265.336 10 0 60925 62100.00000 0 7484373.937 24146240.871 -3506764.430 10 0 60925 63000.00000 0 7685772.471 24337700.830 -310242.112 10 0 60925 63900.00000 0 7770764.738 24142516.434 2892298.221 10 0 60925 64800.00000 0 7688713.109 23582399.112 6038772.952 10 0 60925 65700.00000 0 7395125.561 22690808.789 9068216.701 10 0 60925 66600.00000 0 6853772.635 21511494.646 11921956.548 10 0 60925 67500.00000 0 6038461.115 20096627.117 14544739.789 10 0 60925 68400.00000 0 4934389.808 18504599.688 16885794.105 10 0 60925 69300.00000 0 3539030.298 16797592.428 18899800.446 10 0 60925 70200.00000 0 1862495.286 15038998.697 20547760.860 10 0 60925 71100.00000 0 -72621.749 13290821.740 21797745.516 10 0 60925 72000.00000 0 -2231930.046 11611148.869 22625505.426 10 0 60925 72900.00000 0 -4570421.293 10051807.461 23014939.810 10 0 60925 73800.00000 0 -7034098.354 8656299.396 22958409.560 10 0 60925 74700.00000 0 -9561987.273 7458099.118 22456890.832 10 0 60925 75600.00000 0 -12088451.046 6479385.533 21519965.508 10 0 60925 76500.00000 0 -14545711.046 5730260.226 20165647.973 10 0 60925 77400.00000 0 -16866473.025 5208484.573 18420050.476 10 0 60925 78300.00000 0 -18986549.820 4899746.880 16316892.215 10 0 60925 79200.00000 0 -20847372.511 4778448.752 13896860.157 10 0 60925 80100.00000 0 -22398285.613 4808978.184 11206832.537 10 0 60925 81000.00000 0 -23598530.382 4947416.258 8298978.845 10 0 60925 81900.00000 0 -24418832.656 5143605.801 5229752.751 10 0 60925 82800.00000 0 -24842527.837 5343494.705 2058797.061 10 0 60925 83700.00000 0 -24866174.781 5491654.393 -1152218.130 10 0 60925 84600.00000 0 -24499631.780 5533866.083 -4340801.108 10 0 60925 85500.00000 0 -23765590.629 5419664.065 -7444863.735 10 0 60926 0.00000 0 -22698587.936 5104726.715 -10403940.972 10 0 60926 900.00000 0 -21343534.574 4553011.983 -13160381.274 10 0 60926 1800.00000 0 -19753826.870 3738545.476 -15660479.418 10 0 60926 2700.00000 0 -17989117.769 2646783.110 -17855533.794 10 0 60926 3600.00000 0 -16112843.837 1275489.390 -19702802.638 10 0 60926 4500.00000 0 -14189612.491 -364907.348 -21166341.490 10 0 60926 5400.00000 0 -12282560.098 -2251498.827 -22217705.024 10 0 60926 6300.00000 0 -10450792.425 -4349613.069 -22836499.565 10 0 60926 7200.00000 0 -8747015.084 -6614033.436 -23010775.854 10 0 60926 8100.00000 0 -7215453.147 -8990669.789 -22737254.887 10 0 60926 9000.00000 0 -5890146.473 -11418611.988 -22021383.138 10 0 60926 9900.00000 0 -4793691.132 -13832479.934 -20877216.736 10 0 60926 10800.00000 0 -3936478.216 -16164972.066 -19327137.610 10 0 60926 11700.00000 0 -3316460.154 -18349506.000 -17401407.767 10 0 60926 12600.00000 0 -2919452.416 -20322841.279 -15137570.987 10 0 60926 13500.00000 0 -2719955.850 -22027575.108 -12579714.101 10 0 60926 14400.00000 0 -2682463.116 -23414407.414 -9777602.674 10 0 60926 15300.00000 0 -2763192.379 -24444081.326 -6785708.322 10 0 60926 16200.00000 0 -2912173.662 -25088918.896 -3662146.918 10 0 60926 17100.00000 0 -3075598.577 -25333888.933 -467548.590 10 0 60926 18000.00000 0 -3198333.400 -25177163.418 2736118.297 10 0 60926 18900.00000 0 -3226488.825 -24630140.451 5886746.262 10 0 60926 19800.00000 0 -3109937.649 -23716933.885 8923287.770 10 0 60926 20700.00000 0 -2804674.126 -22473351.989 11786931.164 10 0 60926 21600.00000 0 -2274915.605 -20945408.608 14422231.211 10 0 60926 22500.00000 0 -1494858.041 -19187429.452 16778173.041 10 0 60926 23400.00000 0 -450011.545 -17259832.657 18809149.731 10 0 60926 24300.00000 0 861940.352 -15226675.941 20475835.648 10 0 60926 25200.00000 0 2430794.297 -13153071.874 21745939.701 10 0 60926 26100.00000 0 4234009.002 -11102578.018 22594824.897 10 0 60926 27000.00000 0 6237409.177 -9134669.417 23005983.021 10 0 60926 27900.00000 0 8396383.826 -7302397.355 22971355.765 10 0 60926 28800.00000 0 10657530.932 -5650330.670 22491496.221 10 0 60926 29700.00000 0 12960682.140 -4212864.276 21575567.349 10 0 60926 30600.00000 0 15241225.266 -3012964.583 20241176.710 10 0 60926 31500.00000 0 17432629.823 -2061403.693 18514049.634 10 0 60926 32400.00000 0 19469071.933 -1356514.164 16427545.789 10 0 60926 33300.00000 0 21288050.307 -884474.702 14022027.050 10 0 60926 34200.00000 0 22832884.658 -620115.066 11344087.456 10 0 60926 35100.00000 0 24054992.120 -528206.659 8445658.925 10 0 60926 36000.00000 0 24915845.881 -565184.716 5383009.064 10 0 60926 36900.00000 0 25388533.011 -681229.468 2215650.020 10 0 60926 37800.00000 0 25458844.898 -822618.048 -994820.540 10 0 60926 38700.00000 0 25125853.206 -934247.011 -4185923.439 10 0 60926 39600.00000 0 24401945.952 -962217.583 -7295522.742 10 0 60926 40500.00000 0 23312321.200 -856372.727 -10263046.354 10 0 60926 41400.00000 0 21893959.115 -572676.885 -13030677.434 10 0 60926 42300.00000 0 20194115.369 -75335.781 -15544492.095 10 0 60926 43200.00000 0 18268399.501 661435.257 -17755520.034 10 0 60926 44100.00000 0 16178519.409 1652070.947 -19620706.486 10 0 60926 45000.00000 0 13989787.435 2898801.812 -21103756.026 10 0 60926 45900.00000 0 11768493.378 4391323.303 -22175841.473 10 0 60926 46800.00000 0 9579255.123 6107003.178 -22816164.065 10 0 60926 47700.00000 0 7482458.272 8011619.055 -23012354.281 10 0 60926 48600.00000 0 5531891.853 10060595.561 -22760705.971 10 0 60926 49500.00000 0 3772678.600 12200689.391 -22066239.941 10 0 60926 50400.00000 0 2239585.460 14372051.712 -20942596.406 10 0 60926 51300.00000 0 955783.635 16510581.587 -19411759.184 10 0 60926 52200.00000 0 -67891.684 18550471.940 -17503617.624 10 0 60926 53100.00000 0 -833152.879 20426841.638 -15255375.447 10 0 60926 54000.00000 0 -1353936.101 22078343.732 -12710818.506 10 0 60926 54900.00000 0 -1655557.894 23449641.136 -9919456.202 10 0 60926 55800.00000 0 -1773389.833 24493646.536 -6935553.642 10 0 60926 56700.00000 0 -1751108.872 25173433.495 -3817073.735 10 0 60926 57600.00000 0 -1638598.726 25463739.482 -624550.046 10 0 60926 58500.00000 0 -1489592.067 25351998.782 2580087.473 10 0 60926 59400.00000 0 -1359153.878 24838862.986 5734710.968 10 0 60926 60300.00000 0 -1301112.689 23938188.160 8778194.238 10 0 60926 61200.00000 0 -1365548.294 22676490.047 11651590.303 10 0 60926 62100.00000 0 -1596441.840 21091890.687 14299264.639 10 0 60926 63000.00000 0 -2029587.178 19232600.799 16669962.839 10 0 60926 63900.00000 0 -2690851.225 17155001.293 18717792.849 10 0 60926 64800.00000 0 -3594856.445 14921403.547 20403103.796 10 0 60926 65700.00000 0 -4744141.010 12597581.045 21693245.451 10 0 60926 66600.00000 0 -6128832.399 10250174.084 22563194.582 10 0 60926 67500.00000 0 -7726849.119 7944074.242 22996036.926 10 0 60926 68400.00000 0 -9504623.471 5739895.932 22983295.938 10 0 60926 69300.00000 0 -11418316.931 3691638.761 22525102.161 10 0 60926 70200.00000 0 -13415479.366 1844636.627 21630199.625 10 0 60926 71100.00000 0 -15437084.974 233877.772 20315788.542 10 0 60926 72000.00000 0 -17419861.953 -1117234.956 18607206.234 10 0 60926 72900.00000 0 -19298820.433 -2197632.428 16537451.214 10 0 60926 73800.00000 0 -21009874.420 -3008805.038 14146558.120 10 0 60926 74700.00000 0 -22492448.933 -3564496.460 11480834.199 10 0 60926 75600.00000 0 -23691963.440 -3889878.053 8591970.819 10 0 60926 76500.00000 0 -24562087.190 -4020238.441 5536046.266 10 0 60926 77400.00000 0 -25066670.906 -3999243.400 2372438.581 10 0 60926 78300.00000 0 -25181272.508 -3876839.740 -837330.543 10 0 60926 79200.00000 0 -24894211.215 -3706892.240 -4030798.030 10 0 60926 80100.00000 0 -24207104.226 -3544654.556 -7145783.676 10 0 60926 81000.00000 0 -23134862.017 -3444182.400 -10121611.491 10 0 60926 81900.00000 0 -21705141.415 -3455800.071 -12900303.116 10 0 60926 82800.00000 0 -19957278.762 -3623729.326 -15427718.730 10 0 60926 83700.00000 0 -17940747.761 -3983982.717 -17654622.004 10 0 60926 84600.00000 0 -15713206.869 -4562612.174 -19537647.405 10 0 60926 85500.00000 0 -13338218.578 -5374388.343 -21040150.252 99